Voltar ao catálogo

STARLINK-1152

AtivoComunicaçõesVLEO
NORAD 45096·PAYLOAD·🇺🇸 United States

Lançado Jan 29, 2020 de Cape Canaveral Space Force Station

Loading…

Próximas Passagens (próximas 24 horas)

TLE

AtualizadoSource: CelesTrak SupGP

Época: Sep 14, 2026, 21:21 UTC

1 45096C 20006BE  26257.89006944  .00059451  00000+0  71032-3 0  2570
2 45096  53.0273  18.9318 0001398  78.8090 189.4138 15.60348544    14

Acompanhe STARLINK-1152 em tempo real com AllMySat

Download on the App Store